Other Public Products
Issued by NWS Grand Forks, ND

Home | Current Version | Previous Version | Graphics & Text | Print | Product List | Glossary On
Versions: 1 2 3 4 5 6 7 8 9 10 11 12 13 14 15 16 17 18 19 20 21 22 23 24 25 26 27 28 29 30 31 32 33 34 35 36 37 38 39 40 41 42 43 44 45 46 47 48 49 50
000
FPUS83 KFGF 031131
OPUFGF
PRAIRIE TO PINES WEATHER ROUNDUP
NATIONAL WEATHER SERVICE EASTERN NORTH DAKOTA/GRAND FORKS ND
600 AM CDT WED JUN 03 2015

 **SATELLITE DATA USED TO AUGMENT SKY COVER AT AUTOMATED STATIONS**
 *****  WEATHER ACROSS EASTERN NORTH DAKOTA  *****

CITY           SKY/WX    TMP DP  RH WIND       PRES   REMARKS
GRAND FORKS    CLOUDY    55  53  93 N14       29.76R
GRAND FORKS AF CLOUDY    54  50  87 N13       29.77S
GRAND CITY NWS   N/A     55 N/A N/A N6          N/A
BUXTON           N/A     60  60  99 N6          N/A
DEVILS LAKE    CLOUDY    46  39  76 N21G28    29.85S
FARGO          CLOUDY    62  60  93 W14       29.71R
WAHPETON ARPT  CLOUDY    61  57  88 W12       29.73F VSB 1/4
$$

 *****  WEATHER ACROSS CENTRAL AND WESTERN NORTH DAKOTA  *****

CITY           SKY/WX    TMP DP  RH WIND       PRES   REMARKS
JAMESTOWN      CLOUDY    61  59  93 N10       29.78R
BISMARCK       CLOUDY    52  49  89 N16G24    29.88R
MINOT          CLOUDY    48  46  93 N3        29.96R
MINOT AFB      CLOUDY    50  50 100 N8        29.96
GARRISON         N/A     48  44  86 NE14G28   29.94R
WILLISTON      PTCLDY    49  46  90 N6        29.99R
DICKINSON      CLOUDY    51  48  89 N15       29.95R
HETTINGER      CLOUDY    54  50  86 NW15      29.95R
$$

 *****  OTHER OBSERVATIONS NORTHEAST NORTH DAKOTA  *****

CITY           SKY/WX    TMP DP  RH WIND       PRES   REMARKS
WALHALLA       FAIR      50  41  71 MISG      29.88R
LANGDON          N/A     46  41  81 N22       29.88R
CAVALIER       CLOUDY    52  43  71 N10       29.86R
GRAFTON        CLOUDY    52  46  82 N16G23    29.80R
CANDO          CLOUDY    48  41  76 N20G26    29.89S
FORT TOTTEN      N/A     47  42  81 N8        29.95S
ROLLA          LGT RAIN  45  45 100 NE16      29.95S
RUGBY          NOT AVBL
 ***** THE ABOVE OBSERVATIONS ARE NON NWS ARE NOT QUALITY
        CONTROLLED AND MAY MIS-REPORT RAIN FOR SNOW...
$$

 *****  OTHER OBSERVATIONS SOUTHEAST NORTH DAKOTA *****

CITY           SKY/WX    TMP DP  RH WIND       PRES   REMARKS
COOPERSTOWN    NOT AVBL
VALLEY CITY    FOG       59  59 100 NW10      29.78R VSB 3/4
OAKES            N/A     61  61 100 NW12      29.77S FOG
GWINNER        NOT AVBL
SHEYENNE NWR     N/A     61  60  98 NW7       29.95S
BUFFALO        NOT AVBL
WYNDMERE         N/A     63  63 100 W9          N/A
 ***** THE ABOVE OBSERVATIONS ARE NON NWS ARE NOT QUALITY
       CONTROLLED AND MAY MIS-REPORT RAIN FOR SNOW...
$$

  *****  WEATHER ACROSS NORTHERN MINNESOTA  *****

CITY           SKY/WX    TMP DP  RH WIND       PRES   REMARKS
FLAG ISLAND    CLOUDY    57  55  94 NE9       29.83R
WARROAD        FOG       57  54  88 NE10      29.82R VSB 1/4
ROSEAU         CLOUDY    59  54  82 NE10      29.80R HAZE
HALLOCK        CLOUDY    54  52  94 N10       29.81R
THF RVR FALLS  CLOUDY    59  57  94 NE9       29.77R
HALSTAD          N/A     60  59  97 N12         N/A
FOSSTON        CLOUDY    61  57  88 CALM      29.76R
BAUDETTE       CLOUDY    59  57  93 NE6       29.79S
WASKISH        CLOUDY    57  55  94 E5        29.80R
CROOKSTON      CLOUDY    61  59  94 NE8       29.75R
$$
  *****  WEATHER ACROSS CENTRAL AND WEST MINNESOTA  *****

CITY           SKY/WX    TMP DP  RH WIND       PRES   REMARKS
BEMIDJI        MOCLDY    58  56  95 E6        29.78R
PARK RAPIDS    CLOUDY    63  56  78 SE9       29.76S
WADENA         PTCLDY    61  55  82 S9        29.75S
DETROIT LAKES  MOCLDY    61  59  94 SE6       29.75R
MOORHEAD       CLOUDY    61  59  94 W10       29.72S FOG
FERGUS FALLS   MOCLDY    64  59  82 S12       29.75R
ELBOW LAKE     FAIR      62  58  88 S12       29.75S
MORRIS MN      CLOUDY    63  57  82 SE9       29.75F
STAPLES        CLEAR     61  55  82 S8        29.78R
WHEATON        CLOUDY    64  61  88 CALM      29.75F
$$
  *****  WEATHER ELSEWHERE ACROSS MINNESOTA  *****

CITY           SKY/WX    TMP DP  RH WIND       PRES   REMARKS
DULUTH         CLOUDY    56  52  86 SE9       29.87F
INTRNTL FALLS  CLOUDY    56  55  97 SE3       29.82R
ELY            LGT RAIN  55  54  94 SE9       29.87F
CLOQUET        CLOUDY    54  50  87 E5        29.87F
BRAINERD       PTCLDY    60  55  83 S12       29.81S
HIBBING        RAIN      56  54  93 SE8       29.83F
ALEXANDRIA     MOCLDY    62  56  80 S12       29.79F
SAINT CLOUD    CLOUDY    64  56  75 S14       29.83S
MINNEAPOLIS    CLOUDY    64  55  72 S14       29.88F
$$

  *****  WEATHER ACROSS SOUTH DAKOTA  *****

CITY           SKY/WX    TMP DP  RH WIND       PRES   REMARKS
SIOUX FALLS    CLOUDY    64  60  87 SE7       29.79F
BROOKINGS      CLOUDY    64  61  88 SW8       29.79S
WATERTOWN      CLOUDY    64  61  90 W3        29.77F
HURON          LGT RAIN  65  62  90 N9        29.82R
SISSETON         N/A     67  64  90 NW10      29.73S
ABERDEEN       CLOUDY    64  59  83 NW6       29.77S
MITCHELL       LGT RAIN  65  61  87 N16       29.76F
PIERRE         CLOUDY    60  54  80 N9        29.83R
MOBRIDGE       CLOUDY    60  57  89 NW18G28   29.81R
RAPID CITY     CLEAR     55  51  86 N15       29.93R
$$

  *****  SOME WEATHER IN NEARBY STATES *****

CITY           SKY/WX    TMP DP  RH WIND       PRES   REMARKS
GLASGOW MT     CLOUDY    54  51  90 E8        29.97S
GREAT FALLS MT PTCLDY    47  46  97 SW5       29.97S
CHEYENNE WY    CLEAR     50  45  83 NW7       30.05R
SCOTTSBLUFF NE CLEAR     55  52  89 NE5       29.98R
OMAHA NE       RAIN      65  63  93 SE6       29.89S
DES MOINES IA  CLOUDY    62  55  77 SE9       29.92F
DAVENPORT IA   CLEAR     56  51  84 SE8       30.03S
CHICAGO IL     MOCLDY    51  48  89 SE3       30.08R
EAU CLAIRE WI  CLOUDY    58  49  72 S8        29.96R
LA CROSSE WI   PTCLDY    58  52  80 E6        29.98R
$$

  *****  SOME NATIONAL WEATHER *****

CITY           SKY/WX    TMP DP  RH WIND       PRES   REMARKS
LA GUARDIA NY  CLOUDY    54  48  80 N5        30.22R
RALEIGH NC     CLOUDY    64  61  90 NE8       30.04R
ATLANTA GA     MOCLDY    66  63  88 E7        29.98R
NEW ORLEANS LA PTCLDY    76  68  76 NE9       29.92R
OKLAHOMA CITY  PTCLDY    67  64  90 S12       29.90S
ALBUQUERQUE NM CLEAR     64  23  21 E5        30.06R
SALT LAKE CITY PTCLDY    59  52  77 SW5       29.90S
LOS ANGELES CA CLOUDY    61  57  88 S5        29.93S
BOISE ID       MOCLDY    51  47  86 SW3       29.98R
SEATTLE WA     CLOUDY    54  49  83 S7        30.07S
$$

*** WEATHER ACROSS MANITOBA...SASKATCHEWAN AND ONTARIO ***
                ***ONTARIO***

CITY           SKY/WX    TMP DP  RH WIND       PRES   REMARKS
GERALDTON      LGT RAIN  48  46  93 S5        29.94R FOG
THUNDER BAY    LGT RAIN  48  45  87 NE5       29.92R
SIOUX LOOKOUT  CLOUDY    55  55 100 N3        29.87R FOG
TORONTO        MOSUNNY   52  45  76 NE5       30.23R
BIG TROUT LK   CLEAR     45  37  76 W7        29.88R
PICKLE LAKE    MOCLDY    52  39  62 NE7       29.88
DRYDEN         CLOUDY    55  55 100 NE8       29.86R
KENORA         CLOUDY    57  55  94 NE9       29.84F
$$
                *** MANITOBA***

CITY           SKY/WX    TMP DP  RH WIND       PRES   REMARKS
BRANDON        LGT RAIN  50  43  76 N7        29.99R
DAUPHIN        CLOUDY    50  39  66 NW3       30.01R
ISLAND LAKE    CLEAR     45  37  76 W8        29.96R
PILOT MOUND      N/A     48  39  71 N17G25      N/A
THE PAS        PTCLDY    36  32  87 CALM      30.05R
THOMPSON       CLEAR     37  30  75 NW6       29.99R
WINNIPEG       CLOUDY    54  37  54 N18G24    29.89R
LYNN LAKE      CLEAR     36  32  87 NW3       30.06R
CHURCHILL      CLOUDY    34  34 100 N21       29.86R WCI  22
GILLAM         MOCLDY    41  34  75 NW12      29.90R
$$
                ***SASKATCHEWAN***

CITY           SKY/WX    TMP DP  RH WIND       PRES   REMARKS
ESTEVAN        PTCLDY    43  39  87 N7        30.00
KINDERSLEY     MOCLDY    48  32  53 E12       29.98S
LLOYDMINSTER   CLOUDY    52  36  54 SE7       29.98S
PRINCE ALBERT  CLOUDY    37  34  87 E2        30.04R
REGINA         MOCLDY    48  41  76 SE9       30.00S


USA.gov is the U.S. government's official web portal to all federal, state and local government web resources and services.